sat.trackr.live / text

‹ back to catalog

STARLINK-4344

NORAD 53072 · 2022-077AF

PAYLOAD ACTIVE UNKNOWN

§ Identity

Operator
Country
US
Launch date
2022-07-11
Launch site
AFWTR
Launch vehicle
Mass (kg)
RCS (m²)

Purposes: comms

External: N2YO · Heavens-Above · Gunter

§ Orbital elements

Epoch: 2026-05-25T01:45:08.495136Z

Period
95.64 min
Inclination
97.4470°
Eccentricity
0.0000803
Mean motion
15.05641020 rev/d
Perigee alt
549.0 km
Apogee alt
550.1 km
Semi-major
6,927.7 km
B*
1.1569e-4
RAAN
326.0952°
Arg perigee
131.5488°
Mean anomaly
228.5808°
Rev number
21,247

§ Raw data

STARLINK-43441 53072U 22077AF  26145.07301499  .00001611  00000+0  11569-3 0  99992 53072  97.4470 326.0952 0000803 131.5488 228.5808 15.05641020212471

JSON: /api/v1/satellites/53072 · /tle

For live sub-satellite position, see the globe view (requires WebGL).

§ Visibility from observer

Set your observer location to see the next 7 days of passes ≥ 10°. The values pass through the URL so the page stays shareable.

No JS? Fill the form by hand. The geolocation button needs JavaScript.